Home   Weather   Fall River   Past weeks

Flag for USA Past Weather in Fall River, Massachusetts, USA — Yesterday and Last 2 Weeks

66 °F


Feels Like: 66 °F
Forecast: 53 / 69 °F
Wind: 10 mph from Northeast

Location: New Bedford Regional Airport

Current Time: Oct 20, 2016 at 5:31:08 PM

Latest Report: Oct 20, 2016 at 4:53 PM

Visibility: 10 mi

Pressure: 30.15 "Hg

Humidity: 63%

Dew Point: 53 °F

Location of Fall RiverLocation

Past Weather in Fall River — Graph


Fall River Temperature Yesterday

Maximum temperature yesterday: 81 °F (at 12:53 PM)
Minimum temperature yesterday: 51 °F (at 11:53 PM)
Average temperature yesterday: 68 °F

High & Low Weather Summary for the Past Weeks

High81 °F (Oct 19, 12:53 PM)97% (Oct 6, 12:53 AM)30.47 "Hg (Oct 6, 12:53 AM)
Low34 °F (Oct 15, 2:53 AM)36% (Oct 10, 3:53 PM)29.85 "Hg (Oct 19, 2:53 AM)
Average57 °F77%30.15 "Hg
* Reported Oct 5 3:53 PM — Oct 20 3:53 PM, Fall River, Weather by CustomWeather, © 2016

Note: Actual official high and low records may vary slightly from our data, if they occured in-between our weather recording intervals... More about our weather records


Fall River Weather History for the Previous 24 Hours

Scroll right to see more
Time TempWeatherWind HumidityBarometerVisibility
3:53 PM
Thu, Oct 20
68 °FPassing clouds.13 mph51%30.16 "Hg10 mi
2:53 PM69 °FScattered clouds.10 mph57%30.15 "Hg10 mi
1:53 PM69 °FBroken clouds.10 mph53%30.17 "Hg10 mi
12:53 PM70 °FSunny.12 mph49%30.18 "Hg10 mi
11:53 AM69 °FPassing clouds.9 mph55%30.20 "Hg10 mi
10:53 AM67 °FSunny.12 mph61%30.21 "Hg10 mi
9:53 AM64 °FSunny.9 mph68%30.21 "Hg10 mi
8:53 AM60 °FSunny.7 mph80%30.21 "Hg10 mi
7:53 AM56 °FSunny.5 mph84%30.20 "Hg10 mi
6:53 AM52 °FClear.No wind89%30.18 "Hg10 mi
5:53 AM51 °FClear.No wind92%30.18 "Hg10 mi
4:53 AM50 °FClear.3 mph93%30.17 "Hg10 mi
3:53 AM50 °FClear.No wind93%30.15 "Hg10 mi
2:53 AM53 °FClear.No wind89%30.15 "Hg10 mi
1:53 AM50 °FClear.No wind93%30.15 "Hg10 mi
12:53 AM52 °FClear.No wind93%30.14 "Hg10 mi
11:53 PM
Wed, Oct 19
51 °FClear.No wind92%30.12 "Hg10 mi
10:53 PM54 °FClear.No wind90%30.12 "Hg10 mi
9:53 PM56 °FClear.No wind87%30.11 "Hg10 mi
8:53 PM61 °FClear.No wind70%30.09 "Hg10 mi
7:53 PM60 °FClear.No wind72%30.06 "Hg10 mi
6:53 PM68 °FClear.No wind55%30.03 "Hg10 mi
5:53 PM73 °FSunny.5 mph43%29.99 "Hg10 mi
Weather by CustomWeather, © 2016

See weather overviewHow to use our weather pages